[[{"header":{"parameterUnit":"m.s-1","parameterCategory":1,"la1":30.2991,"la2":30.254,"lo1":-89.0895,"lo2":-89.0444,"dy":0.0017,"dx":0.0017,"nx":28,"ny":28,"refTime":"2024-07-23T09:00:00:Z","depth":0,"parameterNumber":2,"parameterNumberName":"U-component_of_WINDS"},"data":[0,0,0,0,0,0,0,0,0,0,0,0,0,0,0,0,0,0,0,0,0,0,0,0,0,0,0,0,0,0,0,0,0,0,0,0,0,0,0,0,0,0,0,0,0,0,0,0,0,0,0,0,0,0,0,0,0,0,0.5077,0.5077,0,0.507,0.507,0.507,0.5058,0.5058,0.5058,0.5058,0.5049,0.5049,0.5049,0,0,0,0,0,0,0,0,0,0,0,0,0,0.5074,0.5074,0.5077,0.5077,0.5077,0.507,0.507,0.507,0.5058,0.5058,0.5058,0.5058,0.5049,0.5049,0.5049,0,0,0,0,0,0,0,0,0,0,0,0,0,0.5072,0.5074,0.5077,0.507,0.5069,0.5071,0.507,0.507,0.5058,0.5058,0.5058,0.5057,0.5049,0.5049,0.5049,0.5056,0,0,0.5049,0.5049,0,0,0,0,0,0,0,0,0.5072,0.5072,0.5071,0.507,0.507,0.5065,0.5066,0.5065,0.5059,0.5063,0.5058,0.5057,0.5054,0.5054,0.5054,0.5055,0.5055,0.5049,0.5049,0.5049,0.5049,0,0,0,0,0,0,0,0.5072,0.5072,0.5074,0.5071,0.507,0.5066,0.5065,0.5066,0.506,0.5062,0.5061,0.5061,0.5054,0.5054,0.5053,0.5055,0.5049,0.5049,0.5049,0.5049,0.5058,0.5058,0,0,0,0,0,0,0.5074,0.5073,0.5074,0.5074,0.507,0.5066,0.5065,0.5067,0.506,0.5059,0.5061,0.506,0.5054,0.5053,0.5053,0.5058,0.5049,0.5049,0.5049,0.5058,0.5058,0.5058,0,0,0,0,0,0,0.5074,0.5074,0.5075,0.5073,0.5073,0.5067,0.5068,0.5067,0.5066,0.506,0.5058,0.5062,0.5053,0.5053,0.5054,0.5058,0.5049,0.5049,0.5057,0.5058,0.5058,0.507,0,0,0,0,0,0,0.5074,0.5074,0.5078,0.5073,0.5073,0.5078,0.5068,0.5067,0.5067,0.5065,0.506,0.5059,0.5053,0.5054,0.5054,0.5057,0.5049,0.5057,0.5057,0.5058,0.5069,0.507,0.5072,0,0,0,0,0,0.5074,0.5082,0.5079,0.5079,0.5078,0.5078,0.5078,0.5072,0.5067,0.507,0.5065,0.5059,0.5057,0.5055,0.5055,0.5058,0.5057,0.5057,0.5058,0.5068,0.507,0.5072,0,0,0,0,0,0,0.5088,0.5082,0.5078,0.5085,0.5082,0.5076,0.508,0.5074,0.5073,0.5072,0.5063,0.5062,0.5064,0.5061,0.5058,0.5062,0.5056,0.5056,0.5064,0.5065,0.5067,0.5067,0.5049,0,0,0,0,0,0.5092,0.5094,0.5088,0.5094,0.5093,0.5086,0.5086,0.5082,0.5078,0.5077,0.5073,0.5069,0.5067,0.5066,0.5064,0.5068,0.5065,0.507,0.5071,0.5072,0.5073,0.5071,0.5073,0.506,0.506,0.506,0,0,0.51,0.5096,0.5098,0.5097,0.5094,0.5094,0.5086,0.5087,0.5087,0.5077,0.5078,0.5074,0.5069,0.5071,0.5072,0.5068,0.5075,0.5073,0.5074,0.5074,0.5072,0.5073,0.5074,0.506,0.506,0.506,0,0,0.5114,0.5113,0.5117,0.5114,0.511,0.5105,0.5106,0.51,0.5097,0.5098,0.509,0.5088,0.5086,0.5082,0.508,0.5089,0.5082,0.5088,0.5095,0.5094,0.5095,0.5096,0.5097,0.5098,0.5089,0.5089,0.5089,0,0.5125,0.5126,0.512,0.5121,0.5119,0.511,0.5112,0.511,0.5105,0.5103,0.51,0.5095,0.5091,0.509,0.5092,0.5091,0.509,0.5089,0.5096,0.5096,0.5097,0.5098,0.5099,0.5089,0.5089,0.5089,0.5089,0,0.5138,0.5139,0.5142,0.5137,0.5136,0.5138,0.513,0.5129,0.5123,0.5118,0.5117,0.5112,0.5107,0.5107,0.5102,0.5104,0.5102,0.5097,0.5091,0.5099,0.51,0.51,0.509,0.509,0.509,0.509,0,0,0.5163,0.5152,0.5153,0.515,0.5143,0.5143,0.5143,0.5139,0.5137,0.5133,0.5132,0.5129,0.5123,0.512,0.5114,0.5114,0.5118,0.5108,0.5108,0.5109,0.5118,0.5121,0.5122,0.5114,0.5114,0.5114,0.5118,0,0.5175,0.5175,0.5168,0.517,0.5169,0.5158,0.5158,0.5153,0.5147,0.5144,0.5137,0.5135,0.5129,0.5126,0.5125,0.5118,0.512,0.5118,0.5111,0.5111,0.5112,0.5123,0.5127,0.5131,0.5118,0.5119,0.5119,0,0.519,0.5186,0.5187,0.5178,0.5177,0.5177,0.5171,0.5169,0.5162,0.5157,0.5153,0.5145,0.5143,0.5137,0.5132,0.513,0.5127,0.5122,0.5122,0.5121,0.5115,0.5121,0.5133,0.5133,0.5119,0.5119,0.5119,0,0.5205,0.52,0.52,0.5197,0.5187,0.5186,0.5182,0.5174,0.5171,0.5165,0.5163,0.5157,0.5153,0.5148,0.5138,0.5135,0.5133,0.5127,0.5128,0.5128,0.5128,0.5128,0.5138,0.5127,0.5127,0.5127,0.5127,0,0.5218,0.5219,0.5206,0.5206,0.5206,0.5196,0.5196,0.519,0.5183,0.518,0.517,0.5167,0.5155,0.515,0.5143,0.5138,0.5137,0.5132,0.513,0.5133,0.5133,0.513,0.5129,0.5127,0.5127,0.5127,0.5127,0,0.5236,0.5227,0.5226,0.5215,0.5212,0.5212,0.5203,0.5201,0.5194,0.519,0.5188,0.5177,0.517,0.516,0.5151,0.5145,0.5142,0.5139,0.5145,0.5143,0.5144,0.5144,0.5152,0.5152,0.5142,0.5142,0.5142,0,0.5245,0.5245,0.5234,0.5231,0.5227,0.5223,0.5219,0.5209,0.5205,0.5195,0.5194,0.5187,0.518,0.517,0.516,0.5152,0.5148,0.5152,0.5147,0.5149,0.5147,0.5147,0.5146,0.5153,0.5153,0.5153,0.5153,0,0.526,0.5255,0.5251,0.5244,0.524,0.5234,0.5228,0.5226,0.5214,0.5209,0.5203,0.5198,0.5187,0.518,0.517,0.5163,0.5156,0.5155,0.5154,0.5157,0.5159,0.5156,0.5147,0.5155,0.5154,0.5154,0.5154,0.5154,0.5272,0.5271,0.5263,0.5257,0.5251,0.5244,0.5242,0.5234,0.5228,0.5219,0.5213,0.5206,0.5195,0.5182,0.5175,0.5169,0.5166,0.5165,0.5165,0.5165,0.5165,0.5161,0.5167,0.5167,0.5167,0.5167,0.5167,0,0.5286,0.528,0.5275,0.5266,0.526,0.5254,0.5246,0.5241,0.5236,0.5227,0.5221,0.5212,0.5203,0.5192,0.5183,0.5179,0.5175,0.5177,0.5177,0.5175,0.5169,0.517,0.518,0.518,0.518,0.518,0.518,0.518,0.5293,0.529,0.5283,0.5276,0.5269,0.5262,0.5258,0.5251,0.5244,0.5234,0.5228,0.522,0.521,0.5199,0.5191,0.5187,0.5184,0.5186,0.5182,0.5177,0.5176,0.5175,0.5175,0.5186,0.5186,0.5188,0.5188,0.5188]},{"header":{"parameterUnit":"m.s-1","parameterCategory":1,"la1":30.2991,"la2":30.254,"lo1":-89.0895,"lo2":-89.0444,"dy":0.0017,"dx":0.0017,"nx":28,"ny":28,"refTime":"2024-07-23T09:00:00:Z","depth":0,"parameterNumber":3,"parameterNumberName":"V-component_of_WINDS"},"data":[0,0,0,0,0,0,0,0,0,0,0,0,0,0,0,0,0,0,0,0,0,0,0,0,0,0,0,0,0,0,0,0,0,0,0,0,0,0,0,0,0,0,0,0,0,0,0,0,0,0,0,0,0,0,0,0,0,0,1.6597,1.6598,0,1.6645,1.6646,1.6646,1.6622,1.6621,1.662,1.6619,1.6665,1.6668,1.667,0,0,0,0,0,0,0,0,0,0,0,0,0,1.6481,1.6483,1.6597,1.6598,1.6599,1.6645,1.6646,1.6647,1.6623,1.6621,1.6619,1.6618,1.6665,1.6667,1.667,0,0,0,0,0,0,0,0,0,0,0,0,0,1.653,1.6484,1.6597,1.6592,1.6592,1.6645,1.6646,1.6647,1.6623,1.6621,1.6619,1.6617,1.6664,1.6667,1.6671,1.6731,0,0,1.6682,1.6683,0,0,0,0,0,0,0,0,1.6527,1.6534,1.6592,1.6593,1.6593,1.6626,1.6622,1.6675,1.6623,1.6611,1.6619,1.6616,1.6654,1.6658,1.6671,1.6733,1.6735,1.6682,1.6684,1.6686,1.6687,0,0,0,0,0,0,0,1.6524,1.6532,1.6616,1.6593,1.6593,1.6586,1.6591,1.6632,1.6642,1.6612,1.661,1.6617,1.6653,1.6668,1.6672,1.6735,1.6682,1.6685,1.6687,1.6689,1.6845,1.6847,0,0,0,0,0,0,1.6521,1.653,1.6615,1.6618,1.6555,1.659,1.6595,1.6617,1.6642,1.6644,1.6618,1.6615,1.6662,1.6668,1.6673,1.6743,1.6686,1.6689,1.6691,1.6843,1.6845,1.6848,0,0,0,0,0,0,1.6519,1.6529,1.6613,1.6573,1.6583,1.6594,1.6618,1.6619,1.6633,1.6646,1.6648,1.6631,1.6661,1.6668,1.6716,1.6744,1.6691,1.6694,1.6841,1.6844,1.6847,1.6884,0,0,0,0,0,0,1.6516,1.6528,1.6552,1.6574,1.6586,1.6656,1.662,1.6621,1.664,1.6637,1.6659,1.6661,1.666,1.6711,1.6719,1.6748,1.6697,1.6838,1.6842,1.6846,1.688,1.6887,1.6894,0,0,0,0,0,1.6512,1.6561,1.6554,1.6564,1.6616,1.6658,1.6664,1.6663,1.6642,1.6666,1.6673,1.666,1.674,1.6716,1.6725,1.6756,1.6836,1.6841,1.6845,1.6877,1.6886,1.6894,0,0,0,0,0,0,1.6543,1.6564,1.6556,1.6615,1.6634,1.6654,1.6683,1.6674,1.6699,1.6695,1.6692,1.6697,1.6746,1.6756,1.6729,1.6813,1.6785,1.6791,1.6805,1.6814,1.6821,1.6817,1.67,0,0,0,0,0,1.6556,1.659,1.6606,1.6656,1.6666,1.6673,1.6691,1.6688,1.6709,1.6717,1.6728,1.6748,1.6777,1.6796,1.6824,1.6881,1.6884,1.6907,1.6914,1.6919,1.6925,1.6953,1.6962,1.6862,1.6862,1.6862,0,0,1.6585,1.6601,1.6622,1.6662,1.6677,1.671,1.668,1.6717,1.674,1.6722,1.6767,1.6776,1.6797,1.6849,1.6873,1.6859,1.6953,1.6925,1.6929,1.6932,1.6958,1.6968,1.6976,1.6865,1.6865,1.6864,0,0,1.6653,1.667,1.6711,1.6727,1.675,1.6754,1.6764,1.6784,1.6789,1.6835,1.6821,1.6848,1.6899,1.6914,1.6928,1.6999,1.6987,1.7008,1.7045,1.7072,1.708,1.7087,1.711,1.7119,1.7014,1.7014,1.7014,0,1.6686,1.6735,1.6734,1.6771,1.6788,1.6773,1.6814,1.6829,1.686,1.6871,1.6855,1.6917,1.6931,1.6984,1.7001,1.7014,1.7024,1.7006,1.7079,1.7086,1.7093,1.7115,1.7124,1.7016,1.7016,1.7016,1.7016,0,1.6772,1.6807,1.6838,1.6868,1.6888,1.6927,1.693,1.6951,1.6946,1.6951,1.6995,1.7011,1.704,1.7053,1.7049,1.7105,1.7096,1.708,1.7051,1.7105,1.7125,1.7134,1.702,1.7019,1.7018,1.7018,0,0,1.6863,1.689,1.6901,1.6913,1.6937,1.6962,1.6999,1.7028,1.7045,1.7066,1.7096,1.7138,1.7123,1.7139,1.7136,1.716,1.7213,1.7141,1.7141,1.7152,1.7273,1.7284,1.7294,1.7205,1.7206,1.7208,1.7271,0,1.6931,1.6997,1.6995,1.7055,1.7085,1.707,1.7102,1.7119,1.7124,1.7149,1.7154,1.7184,1.7163,1.7172,1.7195,1.7201,1.7237,1.7197,1.723,1.7231,1.7224,1.7305,1.7317,1.7376,1.7279,1.728,1.7281,0,1.702,1.7043,1.7106,1.7123,1.7135,1.7164,1.7189,1.7214,1.7232,1.7233,1.725,1.7243,1.7278,1.7249,1.7296,1.7269,1.7283,1.7288,1.729,1.7292,1.7259,1.7307,1.7395,1.7403,1.7294,1.7293,1.7292,0,1.7076,1.7124,1.7167,1.7178,1.7199,1.7219,1.7229,1.7245,1.7261,1.7283,1.7293,1.7318,1.7332,1.735,1.7349,1.7328,1.7396,1.7368,1.7397,1.7397,1.7411,1.741,1.75,1.7423,1.7423,1.7422,1.7422,0,1.7152,1.7191,1.7192,1.7219,1.7261,1.7258,1.7299,1.7306,1.732,1.7346,1.7335,1.736,1.7357,1.7381,1.7381,1.7419,1.7425,1.7426,1.7425,1.7426,1.7426,1.7434,1.7429,1.7425,1.7424,1.7424,1.7423,0,1.7222,1.7225,1.7271,1.7286,1.7291,1.7321,1.7333,1.7357,1.7361,1.7394,1.7401,1.7406,1.7434,1.7435,1.7467,1.7466,1.7512,1.7507,1.7506,1.7504,1.7533,1.753,1.763,1.7642,1.7559,1.7559,1.756,0,1.7269,1.7298,1.7317,1.7333,1.7344,1.7371,1.7388,1.7385,1.7403,1.7424,1.7445,1.7471,1.7492,1.7537,1.7543,1.7566,1.7561,1.7595,1.7565,1.7564,1.7559,1.7557,1.7559,1.76,1.7601,1.7602,1.7603,0,1.7352,1.7352,1.7376,1.7401,1.742,1.744,1.7457,1.7471,1.7471,1.749,1.7519,1.7535,1.7567,1.7593,1.7615,1.7623,1.7612,1.7612,1.762,1.762,1.7618,1.7617,1.752,1.761,1.7609,1.7608,1.7608,1.7608,1.7411,1.7435,1.7451,1.7478,1.749,1.7507,1.7529,1.7535,1.7559,1.7584,1.7581,1.7612,1.7626,1.7656,1.7666,1.7688,1.7677,1.7688,1.7691,1.7694,1.7696,1.7615,1.7693,1.7693,1.7692,1.7692,1.7692,0,1.7491,1.75,1.7525,1.7549,1.757,1.7558,1.7576,1.7594,1.7621,1.7636,1.7657,1.7688,1.7712,1.7719,1.7742,1.7759,1.7754,1.7765,1.7763,1.7765,1.7706,1.7696,1.7768,1.7768,1.7768,1.7768,1.7768,1.7768,1.7535,1.7575,1.7576,1.762,1.7629,1.7659,1.767,1.7684,1.7695,1.773,1.7751,1.7755,1.7766,1.779,1.7811,1.7812,1.782,1.7833,1.7832,1.7777,1.7769,1.7762,1.7752,1.7835,1.7835,1.7888,1.7889,1.7889]}]]